ONEWEB-0094, 45450

Orbit data source: Space-Track

ONEWEB-0094, 45450 is a payload satellite owned by One Web (UK) in LEO that was launched on Sat, 21 Mar 2020 UTC via a SOYUZ-2-1B launch vehicle from the Tyuratam Missile And Space Complex (TTMTR). Payload-class satellites include a variety of spacecraft equipped with specific instruments for various scientific and technological missions. These include communications satellites like Starlink; space stations such as the ISS; scientific satellites like the Hubble; Earth observation satellites from companies like Planet Labs, Umbra, and HawkEye 360; GPS; miniature CubeSats for education and research; and military/defense satellites.

Loading next visibility...
Identifier
45450, 2020-020AC
Orbit
LEO
Last TLE update
11 hours ago
Origin
Manufacturer
One Web
Mission
Operational Commercial Communications
Bus & Motor
ARROW, Unknown motor
Mass
148 kg wet, ~140 kg dry
Launch date (UTC)
2020-03-21 (5 years ago)
Launch vehicle
SOYUZ-2-1B
Launch site
Tyuratam Missile And Space Complex (TTMTR)
Object type
Payload
Rocket body
Debris
Shape & HBR
Trap Box + 2 Pan, 5 m
Radar Cross Section
2.957 m², Medium (>0.1 m² and < 1m²)

Expand to show TLE details & history

TLE from 11 hours ago
0 ONEWEB-0094
1 45450U 20020AC  25132.86983277  .00000034  00000-0  53305-4 0  9992
2 45450  87.9051  85.5465 0002069  79.5465 280.5900 13.17651591253593
Epoch: 2025-05-12T20:52Z
Definitive object data (Epoch: 2025-05-12T20:52:33.551Z)
Latitude
0.00003°
Longitude
-98.47002°
Altitude
1,196.314 km
Speed
7.256 km/s
True Right ascension
05h 42m 11s
True Declination
0° 00' 00"
Sunlit
Object was in daylight at TLE epoch
Visualization TLE readout
Latitude
-23.9768°
Longitude
-99.48735°
Altitude
1,202.991 km
Speed
7.251 km/s
Apparent Right ascension
05h 00m 09s
Apparent Declination
-31° 35' 59"
Sunlit
Object is in daylight
Visualization observer readout
Local Sidereal Time
16:06:12
Azimuth
303.111° NW
Elevation
-76.28°
Doppler factor
1
Orbital elements
Apogee altitude
1,192.378 km
Perigee altitude
1,189.246 km
Semi-major axis
7,568.949 km
Eccentricity
0.0002069
Inclination
87.9051°
RAAN
85.5465°
Arg. of periapsis
79.5465°
True anomaly
280.56669°
Mean anomaly
280.59°
Eccentric anomaly
280.57835°
Mean motion
3.29602 °/min
BSTAR
0.000053305
Orbital period
109.22 mins
Loading maneuver chart data...
Loading SW <> Apogee altitude chart data...
Loading historical data...
Loading historical data...
Loading historical data...
Loading historical data...
Loading historical data...
Loading historical data...
Loading historical data...

ONEWEB-0094 Visibility forecast

Observer location: undefined°, undefined°

Span
Click to sort rows by Start time (UTC) header in descending order
Start Az.
Max El. time (UTC)
Max El. Az.
Max El.
End time (UTC)
End Az.
13 mins2025-05-13 08:24:23.593Z11.067° NNE2025-05-13 08:31:23.593Z93.325° ESE36.951°2025-05-13 08:37:23.593Z156.476° SSE
10 mins2025-05-13 10:15:23.593Z331.033° NNW2025-05-13 10:20:23.593Z277.015° WNW25.836°2025-05-13 10:25:23.593Z228.878° WSW
12 mins2025-05-13 20:40:23.593Z154.599° SSE2025-05-13 20:46:23.593Z81.175° E38.25°2025-05-13 20:52:23.593Z12.601° NNE
10 mins2025-05-13 22:31:23.593Z233.776° WSW2025-05-13 22:36:23.593Z287.598° WNW24.596°2025-05-13 22:41:23.593Z335.119° NNW
|